IBS1527 LEMD-GCFV

Flight info

Callsign IBS1527
Flight time 2h 44m
Altitude 31000
Route CCS DCT ELVAR/N0441F390 DCT ODEMI DCT TAKAV DCT VEDOD UN857 TERTO
Aircraft A320/M-SDE3FGHIRWY/LB1

Departure

Time 2026-05-07 19:09
Airport Adolfo Suárez Madrid–Barajas Airport (LEMD)

Arrival

Time 2026-05-07 21:54
Airport Fuerteventura Airport (GCFV)
Time Latitude Longitude Altitude Speed Heading
2026-05-07 18:47 40.48839 -3.58966 2022 ft 0 kts 271°
2026-05-07 19:02 40.48839 -3.58963 2022 ft 2 kts 271°
2026-05-07 19:02 40.48840 -3.58929 2026 ft 4 kts 259°
2026-05-07 19:02 40.48848 -3.58896 2028 ft 4 kts 233°
2026-05-07 19:02 40.48866 -3.58878 2023 ft 2 kts 180°
2026-05-07 19:03 40.48872 -3.58879 2028 ft 0 kts 179°
2026-05-07 19:05 40.48869 -3.58878 2030 ft 3 kts 178°
2026-05-07 19:05 40.48805 -3.58877 2022 ft 14 kts 180°
2026-05-07 19:05 40.48758 -3.58798 2022 ft 13 kts 91°
2026-05-07 19:05 40.48759 -3.58669 2022 ft 15 kts 90°
2026-05-07 19:06 40.48759 -3.58516 2019 ft 19 kts 90°
2026-05-07 19:06 40.48765 -3.58095 2004 ft 21 kts 73°
2026-05-07 19:06 40.48855 -3.57999 2001 ft 13 kts 97°
2026-05-07 19:07 40.48859 -3.57835 1995 ft 23 kts 86°
2026-05-07 19:07 40.48874 -3.57638 1990 ft 19 kts 57°
2026-05-07 19:07 40.48977 -3.57622 1990 ft 15 kts
2026-05-07 19:07 40.49088 -3.57620 1989 ft 17 kts 357°
2026-05-07 19:08 40.49196 -3.57560 1987 ft 18 kts 56°
2026-05-07 19:08 40.49286 -3.57457 1983 ft 19 kts
2026-05-07 19:08 40.49466 -3.57455 1983 ft 47 kts 359°
2026-05-07 19:08 40.50025 -3.57457 1987 ft 111 kts 360°
2026-05-07 19:09 40.50981 -3.57465 1997 ft 161 kts 360°
2026-05-07 19:09 40.52175 -3.57477 2504 ft 169 kts
2026-05-07 19:09 40.53345 -3.57488 3288 ft 168 kts
2026-05-07 19:09 40.54514 -3.57505 3944 ft 169 kts
2026-05-07 19:10 40.55655 -3.57852 4510 ft 173 kts 329°
2026-05-07 19:10 40.56490 -3.58966 5070 ft 174 kts 295°
2026-05-07 19:10 40.57076 -3.60420 5422 ft 191 kts 309°
2026-05-07 19:10 40.58132 -3.61627 5665 ft 213 kts 319°
2026-05-07 19:11 40.59335 -3.62934 5905 ft 235 kts 320°
2026-05-07 19:11 40.60626 -3.64296 6603 ft 239 kts 320°
2026-05-07 19:11 40.61907 -3.65641 7385 ft 239 kts 319°
2026-05-07 19:11 40.63085 -3.67174 8137 ft 239 kts 303°
2026-05-07 19:12 40.63827 -3.69126 8833 ft 244 kts 285°
2026-05-07 19:12 40.64038 -3.71422 9147 ft 265 kts 266°
2026-05-07 19:12 40.63981 -3.73929 9647 ft 280 kts 267°
2026-05-07 19:12 40.63927 -3.76514 10369 ft 284 kts 267°
2026-05-07 19:13 40.63878 -3.79130 11113 ft 288 kts 267°
2026-05-07 19:13 40.63833 -3.81784 11871 ft 291 kts 267°
2026-05-07 19:13 40.63790 -3.84493 12384 ft 305 kts 266°
2026-05-07 19:13 40.63740 -3.87386 12570 ft 328 kts 267°
2026-05-07 19:14 40.63688 -3.90461 12979 ft 341 kts 267°
2026-05-07 19:14 40.63635 -3.93597 13686 ft 344 kts 268°
2026-05-07 19:14 40.63585 -3.96770 14317 ft 348 kts 267°
2026-05-07 19:14 40.63538 -3.99967 14953 ft 351 kts 267°
2026-05-07 19:15 40.63487 -4.03191 15602 ft 354 kts 267°
2026-05-07 19:15 40.63429 -4.06434 16244 ft 356 kts 268°
2026-05-07 19:15 40.63369 -4.09713 16834 ft 360 kts 268°
2026-05-07 19:15 40.63310 -4.13015 17478 ft 362 kts 268°
2026-05-07 19:16 40.63249 -4.16347 18089 ft 364 kts 268°
2026-05-07 19:16 40.63185 -4.19647 18639 ft 367 kts 268°
2026-05-07 19:16 40.63117 -4.23016 19160 ft 369 kts 268°
2026-05-07 19:16 40.63047 -4.26405 19690 ft 372 kts 268°
2026-05-07 19:17 40.62977 -4.29820 20213 ft 374 kts 269°
2026-05-07 19:17 40.62907 -4.33249 20736 ft 376 kts 269°
2026-05-07 19:17 40.62840 -4.36702 21252 ft 378 kts 269°
2026-05-07 19:17 40.62773 -4.40168 21781 ft 379 kts 269°
2026-05-07 19:18 40.62702 -4.43648 22301 ft 381 kts 270°
2026-05-07 19:18 40.62628 -4.47140 22799 ft 383 kts 270°
2026-05-07 19:18 40.62510 -4.50653 23292 ft 386 kts 265°
2026-05-07 19:18 40.61958 -4.54122 23727 ft 391 kts 255°
2026-05-07 19:19 40.60900 -4.57429 24130 ft 396 kts 244°
2026-05-07 19:19 40.59370 -4.60465 24567 ft 400 kts 237°
2026-05-07 19:19 40.57704 -4.63399 25007 ft 401 kts 237°
2026-05-07 19:19 40.56033 -4.66336 25429 ft 401 kts 237°
2026-05-07 19:20 40.54358 -4.69279 25839 ft 402 kts 238°
2026-05-07 19:20 40.52674 -4.72227 26246 ft 403 kts 238°
2026-05-07 19:20 40.50989 -4.75172 26639 ft 404 kts 238°
2026-05-07 19:20 40.49300 -4.78130 27032 ft 405 kts 238°
2026-05-07 19:21 40.47612 -4.81085 27431 ft 406 kts 238°
2026-05-07 19:21 40.45915 -4.84054 27823 ft 406 kts 238°
2026-05-07 19:21 40.44215 -4.87026 28201 ft 408 kts 238°
2026-05-07 19:21 40.42511 -4.90007 28576 ft 409 kts 238°
2026-05-07 19:22 40.40804 -4.92993 28941 ft 410 kts 238°
2026-05-07 19:22 40.39117 -4.95943 29263 ft 411 kts 238°
2026-05-07 19:22 40.37400 -4.98941 29616 ft 411 kts 238°
2026-05-07 19:22 40.35677 -5.01943 29943 ft 412 kts 237°
2026-05-07 19:23 40.33945 -5.04952 30229 ft 413 kts 237°
2026-05-07 19:23 40.32214 -5.07960 30519 ft 414 kts 237°
2026-05-07 19:23 40.30481 -5.10972 30796 ft 415 kts 237°
2026-05-07 19:23 40.28743 -5.13987 31081 ft 415 kts 238°
2026-05-07 19:24 40.27005 -5.16995 31459 ft 413 kts 238°
2026-05-07 19:24 40.25275 -5.19984 31842 ft 411 kts 238°
2026-05-07 19:24 40.23552 -5.22957 32221 ft 409 kts 238°
2026-05-07 19:24 40.21840 -5.25915 32604 ft 406 kts 238°
2026-05-07 19:25 40.20138 -5.28853 32972 ft 404 kts 238°
2026-05-07 19:25 40.18442 -5.31780 33362 ft 402 kts 238°
2026-05-07 19:25 40.16756 -5.34689 33706 ft 401 kts 238°
2026-05-07 19:25 40.15076 -5.37580 34050 ft 399 kts 238°
2026-05-07 19:26 40.13396 -5.40464 34365 ft 398 kts 238°
2026-05-07 19:26 40.11723 -5.43331 34657 ft 396 kts 238°
2026-05-07 19:26 40.10076 -5.46151 34991 ft 394 kts 237°
2026-05-07 19:26 40.08420 -5.48984 35287 ft 392 kts 238°
2026-05-07 19:27 40.06769 -5.51810 35557 ft 391 kts 238°
2026-05-07 19:27 40.05125 -5.54625 35802 ft 390 kts 238°
2026-05-07 19:27 40.01844 -5.60235 35899 ft 387 kts 238°
2026-05-07 19:28 39.98577 -5.65812 35895 ft 386 kts 237°
2026-05-07 19:28 39.95313 -5.71378 35882 ft 386 kts 237°
2026-05-07 19:29 39.92051 -5.76918 35886 ft 385 kts 237°
2026-05-07 19:29 39.88787 -5.82439 35882 ft 384 kts 237°
2026-05-07 19:30 39.85533 -5.87955 35874 ft 384 kts 237°
2026-05-07 19:30 39.82282 -5.93453 35883 ft 383 kts 237°
2026-05-07 19:31 39.79583 -5.98010 35882 ft 382 kts 237°
2026-05-07 19:31 39.76337 -6.03490 35878 ft 382 kts 237°
2026-05-07 19:32 39.72563 -6.09840 35869 ft 382 kts 236°
2026-05-07 19:32 39.69840 -6.14411 35872 ft 381 kts 236°
2026-05-07 19:33 39.66594 -6.19856 35871 ft 381 kts 236°
2026-05-07 19:33 39.63371 -6.25254 35845 ft 381 kts 236°
2026-05-07 19:34 39.60128 -6.30672 35858 ft 380 kts 236°
2026-05-07 19:34 39.56889 -6.36074 35866 ft 379 kts 236°
2026-05-07 19:35 39.53653 -6.41465 35867 ft 379 kts 236°
2026-05-07 19:35 39.50769 -6.47127 35875 ft 375 kts 244°
2026-05-07 19:36 39.48509 -6.53208 35866 ft 375 kts 246°
2026-05-07 19:36 39.46338 -6.59345 35862 ft 375 kts 246°
2026-05-07 19:37 39.44070 -6.65415 35861 ft 375 kts 245°
2026-05-07 19:37 39.41755 -6.71413 35861 ft 375 kts 244°
2026-05-07 19:38 39.39399 -6.77478 35859 ft 375 kts 244°
2026-05-07 19:38 39.37078 -6.83461 35841 ft 374 kts 244°
2026-05-07 19:39 39.34746 -6.89480 35855 ft 374 kts 244°
2026-05-07 19:39 39.32416 -6.95492 35857 ft 375 kts 244°
2026-05-07 19:40 39.30077 -7.01505 35869 ft 375 kts 244°
2026-05-07 19:40 39.27734 -7.07518 35871 ft 375 kts 244°
2026-05-07 19:41 39.25390 -7.13522 35872 ft 374 kts 243°
2026-05-07 19:41 39.22945 -7.19449 35881 ft 375 kts 236°
2026-05-07 19:42 39.19212 -7.24152 35893 ft 381 kts 216°
2026-05-07 19:42 39.14532 -7.27464 35886 ft 384 kts 213°
2026-05-07 19:43 39.09841 -7.30693 35880 ft 385 kts 213°
2026-05-07 19:43 39.05119 -7.33948 35894 ft 385 kts 213°
2026-05-07 19:44 39.00398 -7.37202 35899 ft 384 kts 213°
2026-05-07 19:44 38.95684 -7.40442 35899 ft 384 kts 213°
2026-05-07 19:45 38.90964 -7.43679 35899 ft 384 kts 213°
2026-05-07 19:45 38.86255 -7.46905 35883 ft 384 kts 212°
2026-05-07 19:46 38.81545 -7.50131 35893 ft 383 kts 212°
2026-05-07 19:46 38.76837 -7.53354 35901 ft 383 kts 212°
2026-05-07 19:47 38.72161 -7.56538 35900 ft 383 kts 212°
2026-05-07 19:47 38.67453 -7.59741 35919 ft 383 kts 212°
2026-05-07 19:48 38.62747 -7.62940 35908 ft 382 kts 212°
2026-05-07 19:48 38.58052 -7.66131 35917 ft 382 kts 212°
2026-05-07 19:49 38.53355 -7.69315 35914 ft 382 kts 212°
2026-05-07 19:49 38.48664 -7.72488 35917 ft 382 kts 212°
2026-05-07 19:50 38.43977 -7.75662 35916 ft 381 kts 212°
2026-05-07 19:50 38.39280 -7.78825 35909 ft 381 kts 212°
2026-05-07 19:51 38.34618 -7.81961 35904 ft 382 kts 212°
2026-05-07 19:51 38.29922 -7.85123 35903 ft 382 kts 212°
2026-05-07 19:52 38.25222 -7.88283 35905 ft 382 kts 212°
2026-05-07 19:52 38.20524 -7.91438 35906 ft 382 kts 212°
2026-05-07 19:53 38.15820 -7.94591 35905 ft 382 kts 212°
2026-05-07 19:53 38.11119 -7.97748 35906 ft 382 kts 212°
2026-05-07 19:54 38.06414 -8.00894 35907 ft 382 kts 212°
2026-05-07 19:54 38.01706 -8.04028 35909 ft 382 kts 212°
2026-05-07 19:55 37.96990 -8.07166 35916 ft 382 kts 212°
2026-05-07 19:55 37.92278 -8.10297 35936 ft 383 kts 212°
2026-05-07 19:56 37.87565 -8.13425 35925 ft 382 kts 211°
2026-05-07 19:56 37.82853 -8.16553 35930 ft 382 kts 211°
2026-05-07 19:57 37.78174 -8.19653 35940 ft 382 kts 211°
2026-05-07 19:57 37.73459 -8.22770 35944 ft 382 kts 211°
2026-05-07 19:58 37.68743 -8.25880 35947 ft 383 kts 211°
2026-05-07 19:58 37.64020 -8.29000 35948 ft 382 kts 211°
2026-05-07 19:59 37.59314 -8.32104 35958 ft 382 kts 211°
2026-05-07 19:59 37.54606 -8.35198 35984 ft 381 kts 211°
2026-05-07 20:00 37.49909 -8.38271 35976 ft 380 kts 211°
2026-05-07 20:00 37.45230 -8.41352 35972 ft 379 kts 211°
2026-05-07 20:01 37.40560 -8.44441 35945 ft 379 kts 211°
2026-05-07 20:01 37.35895 -8.47521 35952 ft 379 kts 211°
2026-05-07 20:02 37.31224 -8.50587 35953 ft 379 kts 211°
2026-05-07 20:02 37.26580 -8.53631 35953 ft 379 kts 211°
2026-05-07 20:03 37.21905 -8.56694 35949 ft 379 kts 211°
2026-05-07 20:03 37.17234 -8.59756 35945 ft 379 kts 211°
2026-05-07 20:04 37.12564 -8.62810 35930 ft 379 kts 211°
2026-05-07 20:04 37.07879 -8.65862 35937 ft 379 kts 211°
2026-05-07 20:05 37.03193 -8.68910 35943 ft 380 kts 211°
2026-05-07 20:05 36.98498 -8.71961 35966 ft 380 kts 210°
2026-05-07 20:06 36.93839 -8.74989 35962 ft 380 kts 210°
2026-05-07 20:06 36.89155 -8.78037 35944 ft 380 kts 210°
2026-05-07 20:07 36.84470 -8.81077 35952 ft 380 kts 210°
2026-05-07 20:07 36.79774 -8.84111 35954 ft 380 kts 210°
2026-05-07 20:08 36.75073 -8.87147 35962 ft 380 kts 210°
2026-05-07 20:08 36.70374 -8.90172 35963 ft 380 kts 210°
2026-05-07 20:09 36.65665 -8.93201 35965 ft 380 kts 210°
2026-05-07 20:10 36.58618 -8.97740 35948 ft 380 kts 210°
2026-05-07 20:10 36.53919 -9.00760 35955 ft 380 kts 210°
2026-05-07 20:11 36.49249 -9.03755 35965 ft 380 kts 210°
2026-05-07 20:11 36.44552 -9.06759 35968 ft 380 kts 210°
2026-05-07 20:12 36.39855 -9.09760 35986 ft 379 kts 210°
2026-05-07 20:12 36.35169 -9.12755 35987 ft 378 kts 210°
2026-05-07 20:13 36.30488 -9.15745 35984 ft 378 kts 210°
2026-05-07 20:13 36.25816 -9.18723 35985 ft 377 kts 210°
2026-05-07 20:14 36.21181 -9.21671 35983 ft 377 kts 209°
2026-05-07 20:14 36.16512 -9.24632 35981 ft 377 kts 209°
2026-05-07 20:15 36.11847 -9.27590 35960 ft 376 kts 209°
2026-05-07 20:15 36.07190 -9.30539 35972 ft 376 kts 209°
2026-05-07 20:16 36.02531 -9.33485 35973 ft 376 kts 209°
2026-05-07 20:16 35.97879 -9.36421 35974 ft 376 kts 209°
2026-05-07 20:17 35.93228 -9.39279 35967 ft 376 kts 208°
2026-05-07 20:17 35.88470 -9.42061 35974 ft 376 kts 208°
2026-05-07 20:18 35.83764 -9.44796 35956 ft 376 kts 208°
2026-05-07 20:18 35.79034 -9.47564 35985 ft 376 kts 208°
2026-05-07 20:19 35.74318 -9.50339 35988 ft 375 kts 208°
2026-05-07 20:19 35.69607 -9.53107 35983 ft 375 kts 208°
2026-05-07 20:20 35.64903 -9.55869 35985 ft 374 kts 208°
2026-05-07 20:20 35.60198 -9.58616 35980 ft 374 kts 208°
2026-05-07 20:21 35.55522 -9.61344 35986 ft 374 kts 208°
2026-05-07 20:21 35.50813 -9.64085 35980 ft 374 kts 207°
2026-05-07 20:22 35.46100 -9.66827 35978 ft 374 kts 208°
2026-05-07 20:22 35.41403 -9.69563 35977 ft 374 kts 208°
2026-05-07 20:23 35.37488 -9.71836 35977 ft 374 kts 207°
2026-05-07 20:23 35.32787 -9.74563 35963 ft 374 kts 208°
2026-05-07 20:24 35.28085 -9.77293 35967 ft 374 kts 208°
2026-05-07 20:24 35.23380 -9.80009 35968 ft 374 kts 207°
2026-05-07 20:25 35.18669 -9.82729 35977 ft 374 kts 208°
2026-05-07 20:25 35.13994 -9.85437 36003 ft 374 kts 207°
2026-05-07 20:26 35.09278 -9.88148 35985 ft 374 kts 207°
2026-05-07 20:26 35.04568 -9.90852 35989 ft 373 kts 208°
2026-05-07 20:27 34.99868 -9.93546 35989 ft 373 kts 207°
2026-05-07 20:27 34.95176 -9.96240 35989 ft 373 kts 208°
2026-05-07 20:28 34.90481 -9.98933 35989 ft 373 kts 207°
2026-05-07 20:28 34.85781 -10.01617 35988 ft 373 kts 207°
2026-05-07 20:29 34.81095 -10.04303 35960 ft 372 kts 208°
2026-05-07 20:29 34.76405 -10.06989 35972 ft 372 kts 208°
2026-05-07 20:30 34.71745 -10.09644 35982 ft 372 kts 208°
2026-05-07 20:30 34.67062 -10.12311 35983 ft 372 kts 208°
2026-05-07 20:31 34.62381 -10.14979 35988 ft 372 kts 208°
2026-05-07 20:31 34.57695 -10.17640 35994 ft 371 kts 208°
2026-05-07 20:32 34.53013 -10.20294 35972 ft 371 kts 208°
2026-05-07 20:32 34.48337 -10.22941 36013 ft 370 kts 208°
2026-05-07 20:33 34.43668 -10.25581 36002 ft 370 kts 208°
2026-05-07 20:33 34.39011 -10.28219 36001 ft 369 kts 208°
2026-05-07 20:34 34.34352 -10.30854 36003 ft 369 kts 208°
2026-05-07 20:34 34.29697 -10.33477 35988 ft 369 kts 208°
2026-05-07 20:35 34.25049 -10.36098 35990 ft 369 kts 208°
2026-05-07 20:35 34.20402 -10.38712 35988 ft 368 kts 208°
2026-05-07 20:36 34.15757 -10.41326 35985 ft 368 kts 208°
2026-05-07 20:36 34.11142 -10.43914 35987 ft 368 kts 208°
2026-05-07 20:37 34.06496 -10.46510 35982 ft 368 kts 208°
2026-05-07 20:37 34.01852 -10.49113 35953 ft 368 kts 209°
2026-05-07 20:38 33.97214 -10.51714 35972 ft 367 kts 209°
2026-05-07 20:38 33.92575 -10.54306 35977 ft 367 kts 209°
2026-05-07 20:39 33.87968 -10.56877 35979 ft 367 kts 209°
2026-05-07 20:39 33.83338 -10.59460 36019 ft 367 kts 209°
2026-05-07 20:40 33.78710 -10.62040 36012 ft 366 kts 208°
2026-05-07 20:40 33.74085 -10.64604 35975 ft 366 kts 209°
2026-05-07 20:41 33.69473 -10.67164 35988 ft 365 kts 209°
2026-05-07 20:41 33.64862 -10.69724 35992 ft 365 kts 209°
2026-05-07 20:42 33.60256 -10.72278 35995 ft 365 kts 209°
2026-05-07 20:42 33.55642 -10.74827 35995 ft 364 kts 209°
2026-05-07 20:43 33.51037 -10.77368 35993 ft 364 kts 209°
2026-05-07 20:43 33.46464 -10.79898 35956 ft 364 kts 210°
2026-05-07 20:44 33.41864 -10.82424 35973 ft 364 kts 210°
2026-05-07 20:44 33.37267 -10.84951 35983 ft 363 kts 210°
2026-05-07 20:45 33.32672 -10.87485 35998 ft 363 kts 210°
2026-05-07 20:45 33.28076 -10.90010 36004 ft 363 kts 210°
2026-05-07 20:46 33.23485 -10.92529 36000 ft 363 kts 210°
2026-05-07 20:46 33.18895 -10.95048 36001 ft 363 kts 211°
2026-05-07 20:47 33.14309 -10.97559 36008 ft 362 kts 211°
2026-05-07 20:47 33.09731 -11.00056 36012 ft 361 kts 211°
2026-05-07 20:48 33.05160 -11.02552 36019 ft 361 kts 211°
2026-05-07 20:48 33.00618 -11.05027 36018 ft 361 kts 211°
2026-05-07 20:49 32.96027 -11.07535 36019 ft 361 kts 211°
2026-05-07 20:49 32.91492 -11.10004 36018 ft 361 kts 211°
2026-05-07 20:50 32.86928 -11.12490 36018 ft 360 kts 211°
2026-05-07 20:50 32.82363 -11.14974 36016 ft 360 kts 211°
2026-05-07 20:51 32.77805 -11.17442 36013 ft 360 kts 210°
2026-05-07 20:51 32.73249 -11.19910 36012 ft 360 kts 210°
2026-05-07 20:52 32.68692 -11.22380 36008 ft 360 kts 211°
2026-05-07 20:52 32.64135 -11.24844 35970 ft 360 kts 211°
2026-05-07 20:53 32.59585 -11.27304 35986 ft 359 kts 211°
2026-05-07 20:53 32.55064 -11.29742 35996 ft 359 kts 211°
2026-05-07 20:54 32.50511 -11.32194 36038 ft 360 kts 211°
2026-05-07 20:54 32.45951 -11.34647 36034 ft 360 kts 211°
2026-05-07 20:55 32.41399 -11.37095 36030 ft 360 kts 211°
2026-05-07 20:55 32.36840 -11.39542 35981 ft 359 kts 212°
2026-05-07 20:56 32.32288 -11.41986 35999 ft 359 kts 212°
2026-05-07 20:56 32.27741 -11.44422 36008 ft 359 kts 212°
2026-05-07 20:57 32.23202 -11.46859 36015 ft 358 kts 212°
2026-05-07 20:57 32.18663 -11.49286 36022 ft 358 kts 211°
2026-05-07 20:58 32.14157 -11.51686 36017 ft 357 kts 212°
2026-05-07 20:58 32.09649 -11.54084 36012 ft 357 kts 212°
2026-05-07 20:59 32.05118 -11.56501 35985 ft 358 kts 212°
2026-05-07 20:59 32.00575 -11.58918 35990 ft 358 kts 212°
2026-05-07 21:00 31.96030 -11.61338 35994 ft 358 kts 212°
2026-05-07 21:00 31.91484 -11.63750 36000 ft 358 kts 212°
2026-05-07 21:01 31.86938 -11.66156 36007 ft 358 kts 212°
2026-05-07 21:01 31.82426 -11.68556 36023 ft 358 kts 212°
2026-05-07 21:02 31.77887 -11.70962 35976 ft 358 kts 213°
2026-05-07 21:02 31.73341 -11.73361 35981 ft 358 kts 213°
2026-05-07 21:03 31.68797 -11.75762 35996 ft 358 kts 213°
2026-05-07 21:03 31.64256 -11.78164 35999 ft 358 kts 213°
2026-05-07 21:04 31.59710 -11.80561 36004 ft 358 kts 213°
2026-05-07 21:04 31.55164 -11.82960 36010 ft 358 kts 213°
2026-05-07 21:05 31.50613 -11.85353 35982 ft 358 kts 213°
2026-05-07 21:05 31.46045 -11.87755 36001 ft 360 kts 213°
2026-05-07 21:06 31.41477 -11.90154 36026 ft 360 kts 213°
2026-05-07 21:06 31.36915 -11.92547 36026 ft 359 kts 213°
2026-05-07 21:07 31.32384 -11.94915 36032 ft 359 kts 213°
2026-05-07 21:07 31.27829 -11.97300 36034 ft 358 kts 213°
2026-05-07 21:08 31.23280 -11.99676 35975 ft 358 kts 214°
2026-05-07 21:08 31.18740 -12.02040 36000 ft 357 kts 213°
2026-05-07 21:09 31.14210 -12.04398 36056 ft 356 kts 214°
2026-05-07 21:09 31.09683 -12.06760 36050 ft 356 kts 214°
2026-05-07 21:10 31.05163 -12.09122 36048 ft 356 kts 214°
2026-05-07 21:10 31.00641 -12.11475 36045 ft 356 kts 214°
2026-05-07 21:11 30.96120 -12.13822 36042 ft 356 kts 214°
2026-05-07 21:11 30.89344 -12.17342 36020 ft 358 kts 214°
2026-05-07 21:12 30.84795 -12.19701 36039 ft 358 kts 214°
2026-05-07 21:12 30.80255 -12.22044 36044 ft 356 kts 214°
2026-05-07 21:13 30.76462 -12.23999 36043 ft 355 kts 214°
2026-05-07 21:13 30.71942 -12.26331 36041 ft 355 kts 214°
2026-05-07 21:14 30.67458 -12.28647 36042 ft 355 kts 214°
2026-05-07 21:14 30.62951 -12.30973 36008 ft 354 kts 214°
2026-05-07 21:15 30.58455 -12.33284 36026 ft 353 kts 214°
2026-05-07 21:15 30.53967 -12.35592 36038 ft 353 kts 214°
2026-05-07 21:16 30.49559 -12.38222 36042 ft 357 kts 223°
2026-05-07 21:16 30.45521 -12.41705 36046 ft 368 kts 224°
2026-05-07 21:17 30.41372 -12.45281 36041 ft 380 kts 224°
2026-05-07 21:17 30.37103 -12.48934 36040 ft 381 kts 224°
2026-05-07 21:18 30.32828 -12.52587 36037 ft 384 kts 224°
2026-05-07 21:18 30.28528 -12.56266 36046 ft 385 kts 224°
2026-05-07 21:19 30.24225 -12.59946 36047 ft 385 kts 224°
2026-05-07 21:19 30.19917 -12.63621 36046 ft 385 kts 224°
2026-05-07 21:20 30.15607 -12.67292 36051 ft 385 kts 224°
2026-05-07 21:20 30.11296 -12.70964 36048 ft 385 kts 224°
2026-05-07 21:21 30.06628 -12.74156 36053 ft 392 kts 218°
2026-05-07 21:21 30.01862 -12.77204 36045 ft 392 kts 218°
2026-05-07 21:22 29.97087 -12.80242 36040 ft 392 kts 218°
2026-05-07 21:22 29.92353 -12.83269 36052 ft 392 kts 218°
2026-05-07 21:23 29.87583 -12.86314 36051 ft 392 kts 218°
2026-05-07 21:23 29.82803 -12.89357 36039 ft 392 kts 218°
2026-05-07 21:24 29.78027 -12.92401 36044 ft 392 kts 218°
2026-05-07 21:24 29.75630 -12.93928 35627 ft 394 kts 217°
2026-05-07 21:24 29.73227 -12.95453 35382 ft 396 kts 217°
2026-05-07 21:25 29.70812 -12.96986 35142 ft 397 kts 217°
2026-05-07 21:25 29.68393 -12.98522 34893 ft 398 kts 217°
2026-05-07 21:25 29.65958 -13.00069 34196 ft 400 kts 217°
2026-05-07 21:25 29.63526 -13.01614 33671 ft 399 kts 217°
2026-05-07 21:26 29.61096 -13.03156 33161 ft 400 kts 217°
2026-05-07 21:26 29.58657 -13.04705 32641 ft 401 kts 217°
2026-05-07 21:26 29.56212 -13.06252 32155 ft 399 kts 216°
2026-05-07 21:26 29.53775 -13.07790 31608 ft 399 kts 216°
2026-05-07 21:27 29.51344 -13.09322 31104 ft 397 kts 216°
2026-05-07 21:27 29.48931 -13.10843 30594 ft 394 kts 216°
2026-05-07 21:27 29.46536 -13.12355 30089 ft 391 kts 216°
2026-05-07 21:27 29.44157 -13.13856 29550 ft 393 kts 216°
2026-05-07 21:28 29.41733 -13.15394 29051 ft 401 kts 216°
2026-05-07 21:28 29.39290 -13.16939 28551 ft 401 kts 216°
2026-05-07 21:28 29.36853 -13.18476 28059 ft 398 kts 216°
2026-05-07 21:28 29.34405 -13.19966 27570 ft 397 kts 214°
2026-05-07 21:29 29.31964 -13.21345 27100 ft 396 kts 213°
2026-05-07 21:29 29.29443 -13.22702 26631 ft 394 kts 212°
2026-05-07 21:29 29.26965 -13.24012 26173 ft 391 kts 212°
2026-05-07 21:29 29.24539 -13.25300 25730 ft 388 kts 212°
2026-05-07 21:30 29.22101 -13.26611 25282 ft 386 kts 212°
2026-05-07 21:30 29.19685 -13.27925 24824 ft 383 kts 212°
2026-05-07 21:30 29.17292 -13.29237 24318 ft 380 kts 212°
2026-05-07 21:30 29.14917 -13.30545 23804 ft 378 kts 212°
2026-05-07 21:31 29.12543 -13.31851 23281 ft 378 kts 212°
2026-05-07 21:31 29.10175 -13.33151 22787 ft 377 kts 212°
2026-05-07 21:31 29.07824 -13.34439 22293 ft 375 kts 211°
2026-05-07 21:31 29.05452 -13.35739 21804 ft 387 kts 211°
2026-05-07 21:32 29.02996 -13.37092 21288 ft 395 kts 211°
2026-05-07 21:32 29.00513 -13.38450 20771 ft 395 kts 211°
2026-05-07 21:32 28.98032 -13.39803 20259 ft 394 kts 211°
2026-05-07 21:32 28.95550 -13.41123 19807 ft 395 kts 207°
2026-05-07 21:33 28.92850 -13.41953 19573 ft 410 kts 198°
2026-05-07 21:33 28.90046 -13.42622 19337 ft 413 kts 198°
2026-05-07 21:33 28.87223 -13.43277 19102 ft 414 kts 197°
2026-05-07 21:33 28.84405 -13.43920 18850 ft 413 kts 197°
2026-05-07 21:34 28.81591 -13.44557 18645 ft 412 kts 197°
2026-05-07 21:34 28.78782 -13.45196 18418 ft 411 kts 197°
2026-05-07 21:34 28.75981 -13.45838 18167 ft 410 kts 197°
2026-05-07 21:34 28.73188 -13.46481 17905 ft 409 kts 197°
2026-05-07 21:35 28.70401 -13.47123 17645 ft 408 kts 197°
2026-05-07 21:35 28.67621 -13.47766 17383 ft 407 kts 197°
2026-05-07 21:35 28.64881 -13.48402 17132 ft 406 kts 197°
2026-05-07 21:35 28.62112 -13.49047 16878 ft 406 kts 197°
2026-05-07 21:36 28.59347 -13.49688 16629 ft 406 kts 197°
2026-05-07 21:36 28.56576 -13.50329 16355 ft 407 kts 197°
2026-05-07 21:36 28.53808 -13.50966 15927 ft 405 kts 197°
2026-05-07 21:36 28.51042 -13.51599 15419 ft 404 kts 197°
2026-05-07 21:37 28.48291 -13.52229 14914 ft 403 kts 196°
2026-05-07 21:37 28.45547 -13.52855 14411 ft 402 kts 196°
2026-05-07 21:37 28.42812 -13.53479 13899 ft 401 kts 196°
2026-05-07 21:37 28.40079 -13.54103 13347 ft 400 kts 196°
2026-05-07 21:38 28.37356 -13.54725 12836 ft 398 kts 196°
2026-05-07 21:38 28.34649 -13.55345 12325 ft 396 kts 196°
2026-05-07 21:38 28.31959 -13.55963 11805 ft 394 kts 195°
2026-05-07 21:38 28.29292 -13.56575 11412 ft 385 kts 195°
2026-05-07 21:39 28.26735 -13.57155 11259 ft 362 kts 195°
2026-05-07 21:39 28.24363 -13.57687 10853 ft 338 kts 195°
2026-05-07 21:39 28.22111 -13.58198 10519 ft 318 kts 196°
2026-05-07 21:39 28.20002 -13.58676 10178 ft 303 kts 196°
2026-05-07 21:40 28.17961 -13.59145 9565 ft 298 kts 196°
2026-05-07 21:40 28.15939 -13.59612 8888 ft 295 kts 196°
2026-05-07 21:40 28.14017 -13.60052 8700 ft 275 kts 196°
2026-05-07 21:40 28.12185 -13.60470 8346 ft 264 kts 197°
2026-05-07 21:41 28.10519 -13.61174 7983 ft 248 kts 217°
2026-05-07 21:41 28.09180 -13.62355 7936 ft 245 kts 227°
2026-05-07 21:41 28.07912 -13.63647 7859 ft 246 kts 227°
2026-05-07 21:41 28.06632 -13.64936 7732 ft 246 kts 226°
2026-05-07 21:42 28.05349 -13.66220 7613 ft 246 kts 226°
2026-05-07 21:42 28.04069 -13.67503 7488 ft 246 kts 226°
2026-05-07 21:42 28.02792 -13.68784 7371 ft 245 kts 226°
2026-05-07 21:42 28.01542 -13.70092 7246 ft 243 kts 233°
2026-05-07 21:43 28.00635 -13.71650 7127 ft 231 kts 251°
2026-05-07 21:43 28.00165 -13.73355 7007 ft 225 kts 261°
2026-05-07 21:43 27.99799 -13.75068 6893 ft 223 kts 261°
2026-05-07 21:43 27.99428 -13.76770 6774 ft 222 kts 261°
2026-05-07 21:44 27.99059 -13.78466 6659 ft 222 kts 261°
2026-05-07 21:44 27.98688 -13.80160 6543 ft 222 kts 261°
2026-05-07 21:44 27.98363 -13.81861 6414 ft 219 kts 271°
2026-05-07 21:44 27.98588 -13.83516 6293 ft 212 kts 295°
2026-05-07 21:45 27.99429 -13.84857 6194 ft 210 kts 319°
2026-05-07 21:45 28.00706 -13.85649 6044 ft 213 kts 343°
2026-05-07 21:45 28.02181 -13.85820 5867 ft 214 kts 354°
2026-05-07 21:45 28.03663 -13.85902 5674 ft 212 kts 354°
2026-05-07 21:46 28.05135 -13.85987 5479 ft 212 kts 354°
2026-05-07 21:46 28.06606 -13.86075 5287 ft 212 kts 354°
2026-05-07 21:46 28.08076 -13.86167 5097 ft 211 kts 354°
2026-05-07 21:46 28.09538 -13.86262 4905 ft 210 kts 354°
2026-05-07 21:47 28.10995 -13.86356 4710 ft 210 kts 354°
2026-05-07 21:47 28.12451 -13.86448 4518 ft 210 kts 354°
2026-05-07 21:47 28.13900 -13.86538 4318 ft 210 kts 355°
2026-05-07 21:47 28.15364 -13.86628 4123 ft 211 kts 355°
2026-05-07 21:48 28.16829 -13.86719 3933 ft 211 kts 356°
2026-05-07 21:48 28.18298 -13.86810 3848 ft 212 kts 356°
2026-05-07 21:48 28.19762 -13.87015 3755 ft 212 kts 353°
2026-05-07 21:48 28.21215 -13.87130 3657 ft 212 kts 359°
2026-05-07 21:49 28.22690 -13.87118 3556 ft 213 kts
2026-05-07 21:49 28.24176 -13.87072 3412 ft 213 kts
2026-05-07 21:49 28.25655 -13.87023 3237 ft 212 kts
2026-05-07 21:49 28.27114 -13.86975 3056 ft 209 kts
2026-05-07 21:50 28.28549 -13.86928 2913 ft 202 kts
2026-05-07 21:50 28.29934 -13.86882 2765 ft 197 kts
2026-05-07 21:50 28.31291 -13.86837 2558 ft 192 kts
2026-05-07 21:50 28.32600 -13.86794 2299 ft 185 kts
2026-05-07 21:51 28.33848 -13.86753 2060 ft 172 kts
2026-05-07 21:51 28.34975 -13.86717 1839 ft 152 kts
2026-05-07 21:51 28.35979 -13.86684 1634 ft 140 kts
2026-05-07 21:51 28.36922 -13.86652 1448 ft 133 kts
2026-05-07 21:52 28.37844 -13.86622 1276 ft 135 kts
2026-05-07 21:52 28.38777 -13.86591 1096 ft 135 kts
2026-05-07 21:52 28.39719 -13.86559 914 ft 138 kts
2026-05-07 21:52 28.40666 -13.86512 758 ft 136 kts
2026-05-07 21:53 28.41619 -13.86480 577 ft 136 kts
2026-05-07 21:53 28.42568 -13.86456 386 ft 136 kts
2026-05-07 21:53 28.43491 -13.86433 229 ft 133 kts
2026-05-07 21:53 28.44411 -13.86406 60 ft 131 kts
2026-05-07 21:54 28.45189 -13.86377 69 ft 87 kts
2026-05-07 21:54 28.45570 -13.86367 84 ft 18 kts
2026-05-07 21:54 28.45657 -13.86377 89 ft 9 kts 316°
2026-05-07 21:54 28.45661 -13.86434 88 ft 6 kts 271°
2026-05-07 21:55 28.45662 -13.86460 89 ft 3 kts 271°
2026-05-07 21:55 28.45662 -13.86516 94 ft 8 kts 265°
2026-05-07 21:55 28.45621 -13.86559 98 ft 13 kts 192°
2026-05-07 21:55 28.45527 -13.86561 96 ft 13 kts 180°
2026-05-07 21:56 28.45438 -13.86564 96 ft 12 kts 184°
2026-05-07 21:56 28.45374 -13.86600 97 ft 9 kts 243°
2026-05-07 21:56 28.45371 -13.86661 98 ft 7 kts 275°
2026-05-07 21:56 28.45368 -13.86709 99 ft 5 kts 251°
2026-05-07 21:57 28.45304 -13.86737 99 ft 14 kts 183°
2026-05-07 21:57 28.45209 -13.86739 101 ft 13 kts 181°
2026-05-07 21:57 28.45132 -13.86753 99 ft 8 kts 234°
2026-05-07 21:57 28.45127 -13.86816 99 ft 7 kts 267°
2026-05-07 21:58 28.45126 -13.86833 99 ft 0 kts 266°
2026-05-07 21:58 28.45126 -13.86834 99 ft 0 kts 267°